[Iaude] MPEC J227: 2024 JZ6 [a=1.04,e=0.40,i=12.0,H=20.5,PHA]
    mpec at cfa.harvard.edu 
    mpec at cfa.harvard.edu
       
    Thu May  9 10:17:39 EDT 2024
    
    
  
M.P.E.C. 2024-J227                                  Issued 2024 May 9, 14:16 UT
     The Minor Planet Electronic Circulars contain information on unusual
         minor planets, routine data on comets and natural satellites,
         and occasional editorial announcements.  They are published
    on behalf of Division F of the International Astronomical Union by the
          Minor Planet Center, Smithsonian Astrophysical Observatory,
                          Cambridge, MA 02138, U.S.A.
			  
             Prepared using the Tamkin Foundation Computer Network
                              MPC at CFA.HARVARD.EDU
            URL https://www.minorplanetcenter.net/    ISSN 1523-6714
                                    2024 JZ6                                    
Observations:
     K24J06Z* C2024 05 06.21944915 58 56.582-61 58 02.03         17.95oVEJ227W68
     K24J06Z  C2024 05 06.22217815 58 56.170-61 58 11.42         17.82oVEJ227W68
     K24J06Z  C2024 05 06.24132315 58 53.431-61 59 16.04         18.07oVEJ227W68
     K24J06Z  C2024 05 06.93610 15 57 45.09 -62 39 19.9          18.3 GVEJ227M28
     K24J06Z  C2024 05 06.93815 15 57 44.79 -62 39 27.4          18.5 GVEJ227M28
     K24J06Z  C2024 05 06.94021 15 57 44.43 -62 39 34.8          18.3 GVEJ227M28
     K24J06Z KC2024 05 07.01985 15 57 40.91 -62 43 43.1          19.7 VqEJ227I47
     K24J06Z KC2024 05 07.10335 15 57 29.79 -62 49 06.0          19.5 VqEJ227I47
     K24J06Z KC2024 05 07.33196 15 57 04.50 -63 02 32.7          17.2 VZEJ227R56
     K24J06Z KC2024 05 07.34236 15 57 03.17 -63 03 13.9          17.6 VZEJ227R56
     K24J06Z KC2024 05 07.35277 15 57 01.84 -63 03 54.8          18.1 VZEJ227R56
     K24J06Z KC2024 05 07.88024 15 55 54.01 -63 38 03.0                VEJ227M21
     K24J06Z KC2024 05 07.89621 15 55 51.12 -63 39 08.7                VEJ227M21
     K24J06Z KC2024 05 07.90655 15 55 49.23 -63 39 51.3          17.4 GVEJ227M21
     K24J06Z  C2024 05 08.79550 15 53 39.32 -64 39 57.7          17.9 GVEJ227M28
     K24J06Z  C2024 05 08.79752 15 53 38.93 -64 40 07.0          17.0 GVEJ227M28
     K24J06Z  C2024 05 08.79953 15 53 38.52 -64 40 16.7          16.5 GVEJ227M28
Observer details:
I47 Pierre Auger Observatory, Malargue.  Observer M. Masek.  0.3-m f/6.8
    reflector + CCD.
M21 Schiaparelli Southern Observatory, Hakos.  Observers A. Aletti, F.
    Bellini, L. Buzzi, G. Galli.  Measurer L. Buzzi.  0.36-m f/8.4 reflector +
    CCD.
M28 Lesedi Telescope-SAAO Observatory, Sutherland.  Observers N. Erasmus, S.
    Potter, C. van Gend, S. Chandra, H. Worters.  Measurers T. Ngwane, N.
    Erasmus.  1.0-m f/8 Reflector + CCD.
R56 Scott Street Observatory, Lake Tekapo.  Observer A. Vilquin Barrajon.
    0.36-m f/2.2 reflector + CCD.
W68 ATLAS Chile, Rio Hurtado.  Observers L. Denneau, R. Siverd, J. Tonry, H.
    Weiland.  Measurers L. Denneau, N. Erasmus, A. Fitzsimmons, J. Robinson,
    R. Siverd, J. Tonry, H. Weiland.  0.5-m Reflector + CCD.
Orbital elements:
2024 JZ6                                            PHA, Earth MOID = 0.0374 AU
Epoch 2024 Mar. 31.0 TT = JDT 2460400.5                 MPC                     
M 249.02218              (2000.0)            P               Q                  
n   0.92930502     Peri.   98.82500     +0.96512291     +0.17130522             
a   1.0399933      Node   251.49766     -0.22994655     +0.91618191             
e   0.4011133      Incl.   12.04976     +0.12514932     +0.36230544             
P   1.06           H   20.59          G   0.15           U   9                  
Residuals in seconds of arc
240506 W68  0.4+  0.2+    240507 I47  0.6-  0.1+    240507 M21  0.7+  0.5+
240506 W68  0.2+  0.1+    240507 I47  0.2+  0.1+    240507 M21  0.9+  0.3+
240506 W68  0.1-  0.0     240507 R56  0.4+  0.1-    240508 M28  0.0   0.2+
240506 M28  0.2-  0.4-    240507 R56  0.2+  0.0     240508 M28  0.0   0.1+
240506 M28  0.0   0.4-    240507 R56  0.2+  0.4+    240508 M28  0.1-  0.4-
240506 M28  0.3-  0.3-    240507 M21  0.7+  0.4+
Ephemeris:
2024 JZ6                 a,e,i = 1.04, 0.40, 12                  q = 0.6228
Date    TT    R. A. (2000) Decl.     Delta      r    Elong.  Phase     V
2024 04 09    15 55 17.2 -48 35 57   0.3761  1.2616   126.4    39.7    20.5
...
2024 04 24    16 04 12.4 -54 12 35   0.2436  1.1843   132.6    38.7    19.4
...
2024 05 02    16 03 12.2 -58 36 55   0.1773  1.1379   133.9    39.7    18.7
...
2024 05 08    15 55 31.7 -63 45 19   0.1298  1.1009   132.4    42.6    18.0
2024 05 09    15 52 56.2 -64 54 31   0.1221  1.0946   131.7    43.5    17.9
2024 05 10    15 49 39.3 -66 11 22   0.1144  1.0882   130.9    44.5    17.8
...
2024 05 16    14 35 34.5 -78 16 03   0.07092 1.0488   120.4    56.2    17.0
...
2024 05 24    05 11 52.1 -35 50 10   0.03751 0.9937    58.8   119.3    18.2
...
2024 06 08    04 35 40.6 +31 40 12   0.1328  0.8850    11.0   167.4    30.6
A. U. Tomatic                (C) Copyright 2024 MPC           M.P.E.C. 2024-J227
    
    
More information about the Iaude
mailing list